Location: New Canada
(47.1017°N, 68.5042°W)
Time: 22:49:10
(UTC+00:00)

RS-44 - Pass Details

Date: 09 April 2023
Orbit: 1175 x 1510 km, 82.5° (Epoch: 02 June)

Event Time Altitude Azimuth Distance (km) Brightness Sun altitude
Rises 05:00:31 0° 349° (N) 4,466 ? -35.1°
Reaches altitude 10° 05:03:17 10° 350° (N) 3,527 ? -35.1°
Maximum altitude 05:11:51 87° 263° (W) 1,487 ? -34.8°
Enters shadow 05:12:01 86° 224° (SW) 1,489 ? -34.8°
